• In Czech Republic
  • List of Countries
  • For 7 days
  • Water Temperature
  • Satellite Maps
  • Weather Map
  • Weather Widgets
  • user-avatar
    Login

    Hourly Weather Balykley

    Today, 14 November, Wednesday

    Time Temperature Precipitation Wind Pressure Humidity
    00:00 -8°C° 0 mm 3 mps 769 mmHg 32%
    01:00 -8°C° 0 mm 3 mps 769 mmHg 33%
    02:00 -8°C° 0 mm 3 mps 769 mmHg 34%
    03:00 -8°C° 0 mm 3 mps 769 mmHg 37%
    04:00 -9°C° 0 mm 3 mps 768 mmHg 38%
    05:00 -9°C° 0 mm 3 mps 768 mmHg 38%
    06:00 -9°C° 0 mm 3 mps 767 mmHg 39%
    07:00 -9°C° 0 mm 4 mps 767 mmHg 38%
    08:00 -9°C° 0 mm 4 mps 767 mmHg 37%
    09:00 -9°C° 0 mm 4 mps 767 mmHg 36%
    10:00 -8°C° 0 mm 4 mps 767 mmHg 34%
    11:00 -7°C° 0 mm 4 mps 766 mmHg 33%
    12:00 -4°C° 0 mm 4 mps 766 mmHg 32%
    13:00 -4°C° 0 mm 4 mps 766 mmHg 34%
    14:00 -4°C° 0 mm 4 mps 765 mmHg 35%
    15:00 -3°C° 0 mm 4 mps 765 mmHg 37%
    16:00 -4°C° 0 mm 4 mps 765 mmHg 40%
    17:00 -4°C° 0 mm 4 mps 765 mmHg 42%
    18:00 -5°C° 0 mm 4 mps 765 mmHg 45%
    19:00 -5°C° 0 mm 4 mps 765 mmHg 44%
    20:00 -5°C° 0 mm 4 mps 765 mmHg 43%
    21:00 -5°C° 0 mm 4 mps 765 mmHg 42%
    22:00 -7°C° 0 mm 4 mps 765 mmHg 40%
    23:00 -7°C° 0 mm 4 mps 765 mmHg 38%

    Tomorrow, 15 November, Thursday

    Time Temperature Precipitation Wind Pressure Humidity
    00:00 -6°C° 0 mm 3 mps 765 mmHg 37%
    01:00 -6°C° 0 mm 3 mps 765 mmHg 36%
    02:00 -6°C° 0 mm 3 mps 765 mmHg 35%
    03:00 -7°C° 0 mm 3 mps 765 mmHg 34%
    04:00 -7°C° 0 mm 3 mps 765 mmHg 34%
    05:00 -7°C° 0 mm 3 mps 765 mmHg 34%
    06:00 -7°C° 0 mm 3 mps 765 mmHg 34%
    07:00 -7°C° 0 mm 3 mps 765 mmHg 33%
    08:00 -6°C° 0 mm 3 mps 766 mmHg 32%
    09:00 -6°C° 0 mm 3 mps 766 mmHg 30%
    10:00 -5°C° 0 mm 3 mps 766 mmHg 28%
    11:00 -4°C° 0 mm 3 mps 766 mmHg 26%
    12:00 -2°C° 0 mm 3 mps 766 mmHg 24%
    13:00 -2°C° 0 mm 3 mps 766 mmHg 24%
    14:00 -2°C° 0 mm 3 mps 766 mmHg 24%
    15:00 -1°C° 0 mm 3 mps 766 mmHg 24%
    16:00 -2°C° 0 mm 3 mps 767 mmHg 25%
    17:00 -4°C° 0 mm 3 mps 767 mmHg 27%
    18:00 -5°C° 0 mm 3 mps 767 mmHg 29%
    19:00 -5°C° 0 mm 3 mps 767 mmHg 29%
    20:00 -5°C° 0 mm 3 mps 768 mmHg 29%
    21:00 -5°C° 0 mm 3 mps 768 mmHg 29%
    22:00 -6°C° 0 mm 3 mps 768 mmHg 30%
    23:00 -6°C° 0 mm 3 mps 768 mmHg 30%

    Day after tomorrow, 16 November, Friday

    Time Temperature Precipitation Wind Pressure Humidity
    00:00 -6°C° 0 mm 3 mps 769 mmHg 30%
    01:00 -6°C° 0 mm 3 mps 769 mmHg 30%
    02:00 -6°C° 0 mm 3 mps 769 mmHg 30%
    03:00 -5°C° 0 mm 2 mps 769 mmHg 30%
    04:00 -6°C° 0 mm 3 mps 769 mmHg 30%
    05:00 -7°C° 0 mm 3 mps 769 mmHg 29%
    06:00 -7°C° 0 mm 3 mps 769 mmHg 29%
    07:00 -6°C° 0 mm 3 mps 770 mmHg 27%
    08:00 -6°C° 0 mm 3 mps 770 mmHg 26%
    09:00 -6°C° 0 mm 3 mps 770 mmHg 24%
    10:00 -4°C° 0 mm 3 mps 770 mmHg 22%
    11:00 -2°C° 0 mm 3 mps 770 mmHg 20%
    12:00 -1°C° 0 mm 3 mps 770 mmHg 18%
    13:00 -1°C° 0 mm 3 mps 770 mmHg 19%
    14:00 -1°C° 0 mm 3 mps 770 mmHg 20%
    15:00 -1°C° 0 mm 3 mps 770 mmHg 21%
    16:00 -2°C° 0 mm 3 mps 770 mmHg 22%
    17:00 -4°C° 0 mm 3 mps 770 mmHg 24%
    18:00 -4°C° 0 mm 3 mps 770 mmHg 26%
    19:00 -5°C° 0 mm 3 mps 770 mmHg 25%
    20:00 -5°C° 0 mm 3 mps 770 mmHg 25%
    21:00 -5°C° 0 mm 3 mps 770 mmHg 25%
    22:00 -5°C° 0 mm 3 mps 770 mmHg 25%
    23:00 -4°C° 0 mm 2 mps 770 mmHg 25%

    17 November, Saturday

    Time Temperature Precipitation Wind Pressure Humidity
    00:00 -4°C° 0 mm 2 mps 770 mmHg 25%
    01:00 -4°C° 0 mm 2 mps 770 mmHg 25%
    02:00 -5°C° 0 mm 2 mps 769 mmHg 25%
    03:00 -5°C° 0 mm 2 mps 769 mmHg 24%
    04:00 -5°C° 0 mm 2 mps 769 mmHg 24%
    05:00 -5°C° 0 mm 2 mps 769 mmHg 24%
    06:00 -5°C° 0 mm 2 mps 768 mmHg 24%
    07:00 -5°C° 0 mm 2 mps 768 mmHg 23%
    08:00 -4°C° 0 mm 2 mps 768 mmHg 22%
    09:00 -2°C° 0 mm 1 mps 768 mmHg 21%
    10:00 -1°C° 0 mm 1 mps 768 mmHg 19%
    11:00 0°C° 0 mm 1 mps 767 mmHg 17%
    12:00 +2°C° 0 mm 1 mps 767 mmHg 16%
    13:00 +2°C° 0 mm 1 mps 766 mmHg 17%
    14:00 +1°C° 0 mm 1 mps 766 mmHg 18%
    15:00 +1°C° 0 mm 1 mps 765 mmHg 19%
    16:00 +1°C° 0 mm 1 mps 765 mmHg 20%
    17:00 0°C° 0 mm 1 mps 764 mmHg 20%
    18:00 -1°C° 0 mm 1 mps 764 mmHg 21%
    19:00 -3°C° 0 mm 2 mps 763 mmHg 21%
    20:00 -3°C° 0 mm 2 mps 763 mmHg 21%
    21:00 -3°C° 0 mm 2 mps 762 mmHg 21%
    22:00 -3°C° 0 mm 2 mps 762 mmHg 21%
    23:00 -3°C° 0 mm 2 mps 761 mmHg 21%

    18 November, Sunday

    Time Temperature Precipitation Wind Pressure Humidity
    00:00 -5°C° 0 mm 3 mps 760 mmHg 22%
    01:00 -5°C° 0 mm 3 mps 759 mmHg 22%
    02:00 -5°C° 0 mm 3 mps 759 mmHg 22%
    03:00 -5°C° 0 mm 3 mps 758 mmHg 22%
    04:00 -5°C° 0 mm 3 mps 757 mmHg 22%
    05:00 -5°C° 0 mm 3 mps 757 mmHg 22%
    06:00 -5°C° 0 mm 4 mps 756 mmHg 23%
    07:00 -5°C° 0 mm 4 mps 755 mmHg 23%
    08:00 -4°C° 0 mm 4 mps 755 mmHg 23%
    09:00 -4°C° 0 mm 4 mps 754 mmHg 24%
    10:00 -4°C° 0 mm 4 mps 754 mmHg 28%
    11:00 -3°C° 0 mm 4 mps 753 mmHg 32%
    12:00 -2°C° 0 mm 3 mps 753 mmHg 36%
    13:00 -2°C° 0.1 mm 3 mps 753 mmHg 39%
    14:00 -2°C° 0.1 mm 3 mps 752 mmHg 43%
    15:00 -2°C° 0.1 mm 3 mps 752 mmHg 46%
    16:00 -2°C° 0.1 mm 3 mps 752 mmHg 49%
    17:00 -3°C° 0.1 mm 2 mps 751 mmHg 51%
    18:00 -3°C° 0.1 mm 2 mps 751 mmHg 54%
    19:00 -3°C° 0.2 mm 2 mps 751 mmHg 55%
    20:00 -3°C° 0.2 mm 2 mps 751 mmHg 57%
    21:00 -3°C° 0.2 mm 2 mps 751 mmHg 59%
    22:00 -3°C° 0.1 mm 2 mps 751 mmHg 57%
    23:00 -3°C° 0.1 mm 2 mps 751 mmHg 55%

    19 November, Monday

    Time Temperature Precipitation Wind Pressure Humidity
    00:00 -3°C° 0.1 mm 2 mps 751 mmHg 53%
    01:00 -3°C° 0 mm 2 mps 752 mmHg 50%
    02:00 -3°C° 0 mm 2 mps 752 mmHg 47%
    03:00 -4°C° 0 mm 3 mps 752 mmHg 45%
    04:00 -4°C° 0 mm 3 mps 752 mmHg 46%
    05:00 -5°C° 0 mm 3 mps 752 mmHg 46%
    06:00 -5°C° 0 mm 3 mps 753 mmHg 47%
    07:00 -5°C° 0 mm 3 mps 753 mmHg 49%
    08:00 -4°C° 0 mm 3 mps 753 mmHg 50%
    09:00 -4°C° 0 mm 3 mps 754 mmHg 52%
    10:00 -4°C° 0 mm 3 mps 754 mmHg 51%
    11:00 -2°C° 0 mm 3 mps 755 mmHg 50%
    12:00 -2°C° 0 mm 4 mps 755 mmHg 49%
    13:00 -1°C° 0 mm 3 mps 756 mmHg 53%
    14:00 -1°C° 0 mm 3 mps 756 mmHg 58%
    15:00 -1°C° 0 mm 3 mps 756 mmHg 62%
    16:00 -1°C° 0 mm 3 mps 757 mmHg 65%
    17:00 -2°C° 0 mm 3 mps 757 mmHg 67%
    18:00 -2°C° 0 mm 3 mps 757 mmHg 70%
    19:00 -2°C° 0 mm 3 mps 757 mmHg 68%
    20:00 -4°C° 0 mm 3 mps 758 mmHg 66%
    21:00 -4°C° 0 mm 3 mps 758 mmHg 63%
    22:00 -4°C° 0 mm 3 mps 758 mmHg 68%
    23:00 -4°C° 0 mm 3 mps 759 mmHg 73%
    Show more